Location: Gaspur (historical)
(33.7814°N, 118.2212°W)
Time: 18:48:35
(UTC+00:00)

SAR-Lupe-4 - Pass Details

Date: 29 October 2020
Orbit: 481 x 484 km, 98.2° (Epoch: 22 November)

Event Time Altitude Azimuth Distance (km) Brightness Sun altitude
Rises 13:29:14 0° 187° (S) 2,531 7.3 -9.1°
Reaches altitude 10° 13:31:27 10° 199° (SSW) 1,656 6.2 -8.6°
Maximum altitude 13:34:37 30° 261° (W) 896 4.4 -8.0°
Drops below altitude 10° 13:37:47 10° 324° (NW) 1,665 5.8 -7.3°
Sets 13:40:02 0° 336° (NNW) 2,548 6.9 -6.9°
